Location: Arbon
(43.0005°N, 0.7472°E)
Time: 19:16:08
(UTC+00:00)

Cosmos 2228 - Pass Details

Date: 07 August 2020
Orbit: 588 x 619 km, 82.5° (Epoch: 24 September)

Event Time Altitude Azimuth Distance (km) Brightness Sun altitude
Rises 03:29:30 0° 167° (SSE) 2,854 6.2 -14.1°
Reaches altitude 10° 03:31:48 10° 160° (SSE) 1,960 5.4 -13.8°
Maximum altitude 03:35:50 39° 92° (E) 932 4.4 -13.2°
Drops below altitude 10° 03:39:55 10° 24° (NNE) 1,989 6.7 -12.6°
Sets 03:42:16 0° 16° (NNE) 2,902 7.4 -12.3°
